When you browse on this site, cookies collect data to enhance your experience and personalize the content and advertising you see.
Visit our Privacy Policy to learn more. By continuing to use the site, you agree to this use of cookies and data.
  • In United Kingdom
  • List of Countries
  • For 7 days
  • Water Temperature
  • Satellite Maps
  • Weather Map
  • Weather Widgets
  • user-avatar
    Login

    Hourly Weather Abovyan

    Today, 18 December, Tuesday

    Time Temperature Precipitation Wind Pressure Humidity
    00:00 +4°C° 0.5 mm 1 mps 671 mmHg 81%
    01:00 +4°C° 0.3 mm 1 mps 671 mmHg 81%
    02:00 +4°C° 0.3 mm 1 mps 671 mmHg 82%
    03:00 +4°C° 0 mm 1 mps 671 mmHg 82%
    04:00 +4°C° 0.2 mm 1 mps 671 mmHg 82%
    05:00 +3°C° 0.2 mm 1 mps 671 mmHg 83%
    06:00 +3°C° 0.2 mm 1 mps 671 mmHg 84%
    07:00 +4°C° 0.2 mm 1 mps 671 mmHg 82%
    08:00 +4°C° 0.2 mm 1 mps 671 mmHg 81%
    09:00 +5°C° 0 mm 1 mps 672 mmHg 79%
    10:00 +6°C° 0.2 mm 1 mps 672 mmHg 77%
    11:00 +7°C° 0.2 mm 1 mps 672 mmHg 75%
    12:00 +6°C° 0.2 mm 2 mps 672 mmHg 73%
    13:00 +6°C° 0.2 mm 2 mps 672 mmHg 73%
    14:00 +6°C° 0.2 mm 2 mps 672 mmHg 72%
    15:00 +6°C° 0.2 mm 2 mps 672 mmHg 72%
    16:00 +6°C° 0.2 mm 2 mps 672 mmHg 74%
    17:00 +5°C° 0.2 mm 2 mps 672 mmHg 76%
    18:00 +5°C° 0.2 mm 1 mps 673 mmHg 78%
    19:00 +5°C° 0.2 mm 1 mps 673 mmHg 78%
    20:00 +5°C° 0.2 mm 1 mps 673 mmHg 78%
    21:00 +4°C° 0.2 mm 1 mps 673 mmHg 78%
    22:00 +4°C° 0.1 mm 1 mps 674 mmHg 79%
    23:00 +4°C° 0.1 mm 1 mps 674 mmHg 79%

    Tomorrow, 19 December, Wednesday

    Time Temperature Precipitation Wind Pressure Humidity
    00:00 +4°C° 0.1 mm 1 mps 674 mmHg 79%
    01:00 +4°C° 0.1 mm 1 mps 674 mmHg 80%
    02:00 +3°C° 0.1 mm 1 mps 674 mmHg 80%
    03:00 +3°C° 0.1 mm 1 mps 674 mmHg 80%
    04:00 +2°C° 0 mm 2 mps 674 mmHg 81%
    05:00 +2°C° 0 mm 2 mps 674 mmHg 81%
    06:00 +2°C° 0 mm 2 mps 674 mmHg 81%
    07:00 +2°C° 0 mm 2 mps 674 mmHg 80%
    08:00 +3°C° 0 mm 2 mps 674 mmHg 78%
    09:00 +3°C° 0 mm 2 mps 675 mmHg 77%
    10:00 +4°C° 0 mm 2 mps 674 mmHg 75%
    11:00 +5°C° 0 mm 2 mps 674 mmHg 73%
    12:00 +5°C° 0 mm 3 mps 674 mmHg 71%
    13:00 +7°C° 0 mm 3 mps 674 mmHg 70%
    14:00 +7°C° 0 mm 2 mps 673 mmHg 70%
    15:00 +7°C° 0 mm 2 mps 673 mmHg 70%
    16:00 +6°C° 0.1 mm 2 mps 673 mmHg 72%
    17:00 +5°C° 0.1 mm 2 mps 673 mmHg 74%
    18:00 +4°C° 0.1 mm 2 mps 673 mmHg 76%
    19:00 +4°C° 0.1 mm 2 mps 673 mmHg 76%
    20:00 +4°C° 0.1 mm 2 mps 673 mmHg 76%
    21:00 +4°C° 0.1 mm 2 mps 673 mmHg 76%
    22:00 +4°C° 0 mm 1 mps 673 mmHg 76%
    23:00 +4°C° 0 mm 1 mps 673 mmHg 76%

    Day after tomorrow, 20 December, Thursday

    Time Temperature Precipitation Wind Pressure Humidity
    00:00 +4°C° 0 mm 1 mps 673 mmHg 76%
    01:00 +4°C° 0 mm 1 mps 673 mmHg 77%
    02:00 +4°C° 0 mm 1 mps 673 mmHg 77%
    03:00 +4°C° 0 mm 1 mps 673 mmHg 78%
    04:00 +3°C° 0 mm 1 mps 673 mmHg 79%
    05:00 +3°C° 0 mm 1 mps 673 mmHg 79%
    06:00 +3°C° 0 mm 1 mps 672 mmHg 80%
    07:00 +4°C° 0.1 mm 1 mps 672 mmHg 79%
    08:00 +5°C° 0.1 mm 1 mps 673 mmHg 78%
    09:00 +5°C° 0.1 mm 1 mps 673 mmHg 76%
    10:00 +6°C° 0.1 mm 1 mps 673 mmHg 75%
    11:00 +7°C° 0.1 mm 1 mps 672 mmHg 74%
    12:00 +7°C° 0.1 mm 1 mps 672 mmHg 73%
    13:00 +7°C° 0.2 mm 1 mps 672 mmHg 73%
    14:00 +7°C° 0.2 mm 1 mps 671 mmHg 74%
    15:00 +7°C° 0.2 mm 1 mps 671 mmHg 74%
    16:00 +5°C° 0.2 mm 0 mps 671 mmHg 76%
    17:00 +4°C° 0.2 mm 0 mps 671 mmHg 79%
    18:00 +3°C° 0.2 mm 0 mps 671 mmHg 82%
    19:00 +3°C° 0.2 mm 0 mps 671 mmHg 82%
    20:00 +3°C° 0.2 mm 0 mps 672 mmHg 82%
    21:00 +3°C° 0.2 mm 0 mps 672 mmHg 82%
    22:00 +4°C° 0.2 mm 1 mps 672 mmHg 82%
    23:00 +4°C° 0.2 mm 1 mps 672 mmHg 82%

    21 December, Friday

    Time Temperature Precipitation Wind Pressure Humidity
    00:00 +4°C° 0.2 mm 1 mps 672 mmHg 83%
    01:00 +4°C° 0.3 mm 1 mps 672 mmHg 83%
    02:00 +4°C° 0.3 mm 1 mps 672 mmHg 83%
    03:00 +4°C° 0.3 mm 1 mps 672 mmHg 83%
    04:00 +2°C° 0.3 mm 2 mps 672 mmHg 83%
    05:00 +2°C° 0.3 mm 2 mps 673 mmHg 83%
    06:00 +2°C° 0.3 mm 2 mps 673 mmHg 84%
    07:00 +4°C° 0.2 mm 1 mps 673 mmHg 82%
    08:00 +4°C° 0.2 mm 1 mps 673 mmHg 80%
    09:00 +5°C° 0.2 mm 1 mps 674 mmHg 78%
    10:00 +6°C° 0.1 mm 1 mps 674 mmHg 76%
    11:00 +6°C° 0.1 mm 1 mps 674 mmHg 73%
    12:00 +7°C° 0.1 mm 1 mps 673 mmHg 71%
    13:00 +7°C° 0.1 mm 1 mps 673 mmHg 70%
    14:00 +7°C° 0.1 mm 1 mps 673 mmHg 69%
    15:00 +7°C° 0.1 mm 1 mps 673 mmHg 68%
    16:00 +6°C° 0 mm 1 mps 673 mmHg 71%
    17:00 +5°C° 0 mm 1 mps 673 mmHg 74%
    18:00 +4°C° 0 mm 1 mps 673 mmHg 76%
    19:00 +4°C° 0 mm 1 mps 673 mmHg 76%
    20:00 +3°C° 0 mm 1 mps 673 mmHg 77%
    21:00 +3°C° 0 mm 1 mps 674 mmHg 77%
    22:00 +2°C° 0 mm 0 mps 674 mmHg 77%
    23:00 +1°C° 0 mm 0 mps 673 mmHg 78%

    22 December, Saturday

    Time Temperature Precipitation Wind Pressure Humidity
    00:00 +1°C° 0 mm 0 mps 673 mmHg 78%
    01:00 +1°C° 0 mm 0 mps 673 mmHg 78%
    02:00 +2°C° 0 mm 1 mps 673 mmHg 78%
    03:00 +1°C° 0 mm 1 mps 673 mmHg 77%
    04:00 +1°C° 0 mm 1 mps 673 mmHg 77%
    05:00 +1°C° 0 mm 1 mps 672 mmHg 77%
    06:00 +1°C° 0 mm 1 mps 672 mmHg 77%
    07:00 +2°C° 0 mm 1 mps 672 mmHg 75%
    08:00 +2°C° 0 mm 1 mps 672 mmHg 73%
    09:00 +3°C° 0 mm 1 mps 673 mmHg 72%
    10:00 +4°C° 0 mm 1 mps 672 mmHg 70%
    11:00 +5°C° 0 mm 1 mps 672 mmHg 68%
    12:00 +5°C° 0 mm 2 mps 671 mmHg 66%
    13:00 +5°C° 0 mm 2 mps 671 mmHg 66%
    14:00 +6°C° 0 mm 1 mps 671 mmHg 66%
    15:00 +6°C° 0 mm 1 mps 670 mmHg 65%
    16:00 +5°C° 0 mm 1 mps 670 mmHg 67%
    17:00 +4°C° 0 mm 1 mps 670 mmHg 69%
    18:00 +3°C° 0 mm 1 mps 671 mmHg 71%
    19:00 +3°C° 0.1 mm 1 mps 671 mmHg 71%
    20:00 +3°C° 0.1 mm 1 mps 671 mmHg 72%
    21:00 +3°C° 0.1 mm 1 mps 671 mmHg 73%
    22:00 +3°C° 0.2 mm 1 mps 671 mmHg 74%
    23:00 +2°C° 0.2 mm 1 mps 671 mmHg 75%

    23 December, Sunday

    Time Temperature Precipitation Wind Pressure Humidity
    00:00 +2°C° 0.2 mm 1 mps 671 mmHg 76%
    01:00 +2°C° 0.1 mm 1 mps 671 mmHg 77%
    02:00 +2°C° 0.1 mm 1 mps 671 mmHg 78%
    03:00 +1°C° 0.1 mm 1 mps 671 mmHg 79%
    04:00 +1°C° 0 mm 1 mps 671 mmHg 78%
    05:00 0°C° 0 mm 1 mps 671 mmHg 78%
    06:00 0°C° 0 mm 1 mps 671 mmHg 78%
    07:00 +1°C° 0 mm 1 mps 672 mmHg 76%
    08:00 +1°C° 0 mm 1 mps 672 mmHg 74%
    09:00 +2°C° 0 mm 1 mps 672 mmHg 73%
    10:00 +3°C° 0 mm 1 mps 672 mmHg 70%
    11:00 +4°C° 0 mm 1 mps 672 mmHg 67%
    12:00 +4°C° 0 mm 1 mps 672 mmHg 64%
    13:00 +4°C° 0 mm 1 mps 672 mmHg 64%
    14:00 +4°C° 0 mm 1 mps 671 mmHg 63%
    15:00 +4°C° 0 mm 1 mps 671 mmHg 62%
    16:00 +3°C° 0 mm 1 mps 672 mmHg 64%
    17:00 +2°C° 0 mm 1 mps 672 mmHg 66%
    18:00 +1°C° 0 mm 1 mps 672 mmHg 68%
    19:00 +1°C° 0 mm 1 mps 672 mmHg 68%
    20:00 +1°C° 0 mm 1 mps 672 mmHg 67%
    21:00 0°C° 0 mm 1 mps 672 mmHg 67%
    22:00 0°C° 0 mm 1 mps 672 mmHg 67%
    23:00 0°C° 0 mm 1 mps 672 mmHg 67%
    Show more